Location: Newark
(41.6500°N, 71.4833°W)
Time: 23:52:55
(UTC+00:00)

Courier 1B - Pass Details

Date: 20 January 2020
Orbit: 962 x 1209 km, 28.3° (Epoch: 19 February)

Event Time Altitude Azimuth Distance (km) Brightness Sun altitude
Rises 15:05:22 0° 255° (WSW) 4,105 10.6 23.0°
Reaches altitude 10° 15:10:50 10° 225° (SW) 3,114 10.4 23.5°
Maximum altitude 15:13:03 11° 208° (SSW) 2,993 10.6 23.7°
Drops below altitude 10° 15:15:15 10° 191° (S) 3,079 11.1 23.9°
Sets 15:20:35 0° 160° (SSE) 3,983 12.1 24.3°
